Weather History for KBGR - April, 2013

Change the Weather History Date:

Monday, April 1, 2013

  Actual Average Record
Temperature  
Mean Temperature 38 °F 36 °F  
Max Temperature 46 °F 46 °F 64 °F (1986)
Min Temperature 30 °F 27 °F 4 °F (1928)
Degree Days  
Heating Degree Days 27 29  
Month to date heating degree days 27 29  
Since 1 July heating degree days 6407 6752  
Cooling Degree Days 0 0  
Month to date cooling degree days 0 0  
Year to date cooling degree days 0 0  
Moisture  
Dew Point 36 °F    
Average Humidity 82    
Maximum Humidity 100    
Minimum Humidity 63    
Precipitation  
Precipitation 0.39 in 0.12 in 1.61 in (1962)
Month to date precipitation 0.39 0.12  
Year to date precipitation 5.35 8.91  
Snow  
Snow 0.00 in 0.30 in 14.40 in (2011)
Month to date snowfall 0.0 0.3  
Since 1 July snowfall 73.2 62.7  
Snow Depth 0.00 in    
Sea Level Pressure  
Sea Level Pressure 29.61 in    
Wind  
Wind Speed 8 mph (East)    
Max Wind Speed 26 mph    
Max Gust Speed 35 mph    
Visibility 8 miles    
Events Rain    
T = Trace of Precipitation, MM = Missing Value Source: NWS Daily Summary

Daily Weather History Graph

Daily Weather History Graph

Search for Another Location

Airport or City:

Trip Planner

Search our weather history database for the weather conditions in past years. The results will help you decide how hot, cold, wet, or windy it might be!

Date:

Astronomy

Apr. 01, 2013 Rise Set
Actual Time 6:15 AM EDT 7:03 PM EDT
Civil Twilight 5:46 AM EDT 7:32 PM EDT
Nautical Twilight 5:10 AM EDT 8:08 PM EDT
Astronomical Twilight 4:34 AM EDT 8:44 PM EDT
Moon 12:18 AM EDT (4/1) 9:47 AM EDT (4/1)
Length of Visible Light 13h 46m
Length of Day
12h 47m
Waning Gibbous, 67% of the Moon is Illuminated
Apr 1
Waning Gibbous
Apr 3
Last Quarter
Apr 10
New
Apr 18
First Quarter
Apr 25
Full

Hourly Weather History & Observations

Time (EDT) Temp. Windchill Dew Point Humidity Pressure Visibility Wind Dir Wind Speed Gust Speed Precip Events Conditions
12:53 AM 39.0 °F 35.7 °F 34.0 °F 82% 29.86 in 10.0 mi SSE 4.6 mph - N/A   Mostly Cloudy
1:53 AM 39.9 °F 36.7 °F 34.0 °F 79% 29.84 in 10.0 mi South 4.6 mph - N/A   Overcast
2:53 AM 37.9 °F 35.5 °F 34.0 °F 86% 29.81 in 10.0 mi East 3.5 mph - N/A   Overcast
3:53 AM 39.9 °F 34.5 °F 36.0 °F 86% 29.80 in 7.0 mi South 8.1 mph - 0.01 in Rain Light Rain
4:07 AM 39.2 °F 34.2 °F 37.4 °F 93% 29.79 in 6.0 mi SSE 6.9 mph - 0.02 in Rain Light Rain
4:44 AM 37.4 °F 31.4 °F 35.6 °F 93% 29.77 in 7.0 mi South 8.1 mph - 0.10 in Rain Light Rain
4:53 AM 37.0 °F 31.6 °F 35.1 °F 93% 29.77 in 9.0 mi SSE 6.9 mph - 0.12 in Rain Light Rain
5:11 AM 35.6 °F 28.6 °F 33.8 °F 93% 29.75 in 8.0 mi SE 9.2 mph - 0.02 in Rain Light Rain
5:13 AM 35.6 °F 28.6 °F 33.8 °F 93% 29.75 in 7.0 mi SE 9.2 mph - 0.02 in Rain Light Rain
5:21 AM 35.6 °F 29.2 °F 33.8 °F 93% 29.74 in 8.0 mi SE 8.1 mph - 0.03 in Rain Light Rain
5:37 AM 35.6 °F 29.2 °F 33.8 °F 93% 29.73 in 9.0 mi ESE 8.1 mph - 0.04 in Rain Light Rain
5:49 AM 35.6 °F 29.2 °F 33.8 °F 93% 29.72 in 9.0 mi East 8.1 mph - 0.05 in Rain Light Rain
5:53 AM 36.0 °F 29.6 °F 34.0 °F 93% 29.72 in 10.0 mi East 8.1 mph - 0.05 in Rain Light Rain
6:26 AM 35.6 °F 29.9 °F 33.8 °F 93% 29.70 in 7.0 mi ENE 6.9 mph - 0.03 in Rain Light Rain
6:43 AM 35.6 °F 30.7 °F 35.6 °F 100% 29.69 in 9.0 mi NE 5.8 mph - 0.05 in Rain Light Rain
6:53 AM 36.0 °F 30.3 °F 35.1 °F 97% 29.68 in 6.0 mi NE 6.9 mph - 0.06 in Rain Light Rain
7:19 AM 37.4 °F 30.3 °F 35.6 °F 93% 29.65 in 8.0 mi East 10.4 mph - 0.01 in Rain Light Rain
7:53 AM 37.0 °F 30.4 °F 35.1 °F 93% 29.63 in 5.0 mi ENE 9.2 mph - 0.03 in Rain Light Rain
8:04 AM 37.4 °F 30.8 °F 35.6 °F 93% 29.62 in 2.0 mi East 9.2 mph - 0.00 in Rain Light Rain
8:12 AM 37.4 °F 30.3 °F 35.6 °F 93% 29.61 in 2.0 mi ENE 10.4 mph - 0.00 in Rain Light Rain
8:32 AM 37.4 °F 28.9 °F 35.6 °F 93% 29.59 in 5.0 mi East 13.8 mph - 0.00 in   Light Drizzle
8:53 AM 37.0 °F 28.5 °F 35.1 °F 93% 29.58 in 3.0 mi East 13.8 mph 20.7 mph 0.00 in   Light Drizzle
9:51 AM 37.4 °F 32.1 °F 35.6 °F 93% 29.53 in 2.5 mi ENE 6.9 mph - 0.00 in   Light Drizzle
9:53 AM 37.0 °F 31.0 °F 36.0 °F 96% 29.54 in 2.5 mi NE 8.1 mph - 0.00 in   Light Drizzle
10:46 AM 37.4 °F 31.4 °F 37.4 °F 100% 29.53 in 3.0 mi North 8.1 mph - 0.00 in   Overcast
10:53 AM 37.9 °F 32.1 °F 37.0 °F 97% 29.52 in 4.0 mi North 8.1 mph - 0.00 in   Overcast
11:24 AM 39.2 °F 33.0 °F 37.4 °F 93% 29.51 in 5.0 mi North 9.2 mph - N/A   Overcast
11:53 AM 39.9 °F 33.4 °F 37.9 °F 93% 29.51 in 6.0 mi North 10.4 mph - N/A   Overcast
12:53 PM 39.9 °F 33.4 °F 37.9 °F 93% 29.50 in 10.0 mi NNW 10.4 mph - N/A   Overcast
1:33 PM 39.2 °F 33.6 °F 37.4 °F 93% 29.52 in 10.0 mi NW 8.1 mph - N/A   Overcast
1:53 PM 41.0 °F 34.7 °F 39.0 °F 93% 29.52 in 10.0 mi NW 10.4 mph - N/A   Overcast
2:45 PM 41.0 °F 36.4 °F 37.4 °F 87% 29.51 in 10.0 mi West 6.9 mph - N/A   Overcast
2:53 PM 42.1 °F 39.2 °F 37.9 °F 85% 29.52 in 10.0 mi Variable 4.6 mph - N/A   Overcast
3:53 PM 43.0 °F 38.8 °F 37.0 °F 80% 29.52 in 10.0 mi WSW 6.9 mph - N/A   Overcast
4:14 PM 42.8 °F 40.1 °F 37.4 °F 81% 29.51 in 10.0 mi SSW 4.6 mph - N/A   Overcast
4:41 PM 44.6 °F 40.7 °F 37.4 °F 76% 29.50 in 10.0 mi SW 6.9 mph - N/A   Mostly Cloudy
4:53 PM 45.0 °F 40.6 °F 37.0 °F 74% 29.50 in 10.0 mi South 8.1 mph - N/A   Mostly Cloudy
5:34 PM 46.4 °F 41.5 °F 37.4 °F 71% 29.50 in 10.0 mi SSE 10.4 mph - N/A   Overcast
5:53 PM 45.0 °F 38.5 °F 37.9 °F 76% 29.51 in 10.0 mi SSE 13.8 mph - N/A   Overcast
6:53 PM 42.1 °F 39.2 °F 39.9 °F 92% 29.51 in 5.0 mi South 4.6 mph - 0.04 in Rain Light Rain
7:26 PM 42.8 °F 41.1 °F 41.0 °F 93% 29.49 in 8.0 mi South 3.5 mph - 0.03 in Rain Light Rain
7:41 PM 42.8 °F 41.1 °F 41.0 °F 93% 29.50 in 7.0 mi SSW 3.5 mph - 0.03 in Rain Light Rain
7:53 PM 39.0 °F 29.3 °F 37.0 °F 93% 29.54 in 7.0 mi NW 19.6 mph 34.5 mph 0.04 in Rain Light Rain
8:10 PM 35.6 °F 25.9 °F 33.8 °F 93% 29.56 in 4.0 mi NW 16.1 mph 23.0 mph 0.02 in Rain Light Rain
8:13 PM 35.6 °F 27.5 °F 33.8 °F 93% 29.56 in 4.0 mi NW 11.5 mph 23.0 mph 0.02 in Rain Rain
8:53 PM 35.1 °F 28.6 °F 34.0 °F 96% 29.59 in 8.0 mi WNW 8.1 mph - 0.04 in Rain Light Rain
9:18 PM 35.6 °F 29.9 °F 33.8 °F 93% 29.58 in 10.0 mi NW 6.9 mph - 0.00 in   Overcast
9:53 PM 34.0 °F 28.8 °F 33.1 °F 96% 29.58 in 10.0 mi NW 5.8 mph - 0.00 in   Overcast
10:53 PM 33.1 °F 26.9 °F 28.0 °F 82% 29.60 in 10.0 mi WNW 6.9 mph - N/A   Mostly Cloudy
11:53 PM 32.0 °F 23.6 °F 21.9 °F 66% 29.62 in 10.0 mi WNW 10.4 mph - N/A   Clear